Find PREFIRE 2

NORAD ID: 59881 Int'l Des: 2024-099 Owner: JPL Country: US operational
LEOCIRCULARRETROGRADESSO

Live Position

Loading 3D Globe...

About PREFIRE 2

Description loading...

Upcoming Passes

Passes for default location (London). Set your location on the main map for personalized predictions.

Altitude History

Loading altitude history...

Two-Line Element Set

1 59881U 24099A 26106.54567539 .00002306 00000-0 10806-3 0 9993
2 59881 97.4155 323.7540 0013694 65.2155 295.0503 15.20629464104766
Epoch: Apr 16, 2026 • Age: 14 hours

Current Status

Altitude 531.8 km
Velocity 7.59 km/s
Sub-Earth Point -58.81°S, 85.67°E
Launch Date May 25, 2024
Age 1.8 years
Type other

Technical Details

Classification Payload
Mass 10.00 kg
Dry Mass 10.00 kg
Total Mass 10.00 kg
Length 0.30 m
Diameter 0.20 m
Span 12.70 m
Shape Box+sail
Manufacturer JPL
Bus Type Cubesat 6U
Phase Status In Orbit
Owner/State JPL/US

Most Searched